Epoch = 2008 Oct. 21.0 TT T = 2008 Nov. 6.2551 TT Peri. = 271.1732 e = 0.757141 Node = 200.6744 2000.0 q = 0.944153 AU Incl. = 10.1500 a = 3.887655 AU n = 0.1285797 P = 7.665 years
m1 = 16.0 + 5 logΔ + 10.0 log r